| time (UTC) | temp F | wind direction | speed knots | gust knots | rain 1hr in | rain 24hr in | rain mn in | humidity % | barometer mb |
| 20260505041643 | 59 | 233 | 2.6 | 2.6 | 0.00 | 0.00 | 0.00 | 58 | 1007.2 |
| 20260505041140 | 59 | 230 | 1.7 | 1.7 | 0.00 | 0.00 | 0.00 | 58 | 1007.0 |
| 20260505040636 | 59 | 230 | 4.3 | 6.1 | 0.00 | 0.00 | 0.00 | 57 | 1007.1 |
| 20260505040134 | 59 | 143 | 4.3 | 7.0 | 0.00 | 0.00 | 0.00 | 57 | 1006.9 |
| 20260505035630 | 59 | 225 | 2.6 | 3.5 | 0.00 | 0.00 | 0.00 | 56 | 1007.0 |
| 20260505035127 | 59 | 235 | 2.6 | 2.6 | 0.00 | 0.00 | 0.00 | 56 | 1006.8 |
| 20260505034624 | 59 | 224 | 1.7 | 2.6 | 0.00 | 0.00 | 0.00 | 55 | 1007.1 |
| 20260505034120 | 59 | 225 | 3.5 | 5.2 | 0.00 | 0.00 | 0.00 | 55 | 1007.0 |
| 20260505033617 | 59 | 212 | 3.5 | 5.2 | 0.00 | 0.00 | 0.00 | 55 | 1007.1 |
| 20260505033116 | 60 | 218 | 0.9 | 1.7 | 0.00 | 0.00 | 0.00 | 55 | 1006.9 |
| 20260505032613 | 60 | 216 | 1.7 | 2.6 | 0.00 | 0.00 | 0.00 | 54 | 1006.8 |
| 20260505032109 | 60 | 234 | 1.7 | 1.7 | 0.00 | 0.00 | 0.00 | 54 | 1006.9 |
| 20260505031607 | 60 | 226 | 2.6 | 2.6 | 0.00 | 0.00 | 0.00 | 54 | 1006.8 |
| 20260505031103 | 60 | 243 | 7.0 | 7.8 | 0.00 | 0.00 | 0.00 | 53 | 1007.0 |
| 20260505030600 | 60 | 220 | 2.6 | 5.2 | 0.00 | 0.00 | 0.00 | 53 | 1007.0 |
| 20260505030056 | 60 | 216 | 2.6 | 2.6 | 0.00 | 0.00 | 0.00 | 53 | 1006.8 |
| 20260505025551 | 60 | 222 | 3.5 | 3.5 | 0.00 | 0.00 | 0.00 | 53 | 1007.0 |
| 20260505025051 | 61 | 226 | 1.7 | 2.6 | 0.00 | 0.00 | 0.00 | 53 | 1006.9 |
| 20260505024547 | 61 | 203 | 2.6 | 2.6 | 0.00 | 0.00 | 0.00 | 52 | 1007.1 |
| 20260505024045 | 61 | 201 | 2.6 | 3.5 | 0.00 | 0.00 | 0.00 | 52 | 1006.9 |
| 20260505023542 | 61 | 210 | 1.7 | 1.7 | 0.00 | 0.00 | 0.00 | 52 | 1007.0 |
| 20260505023039 | 61 | 196 | 2.6 | 3.5 | 0.00 | 0.00 | 0.00 | 51 | 1007.1 |
| 20260505022537 | 61 | 238 | 1.7 | 1.7 | 0.00 | 0.00 | 0.00 | 51 | 1006.7 |
| 20260505022034 | 61 | 228 | 2.6 | 2.6 | 0.00 | 0.00 | 0.00 | 51 | 1007.0 |
| 20260505021530 | 62 | 190 | 3.5 | 3.5 | 0.00 | 0.00 | 0.00 | 50 | 1006.9 |
| 20260505021026 | 62 | 215 | 1.7 | 1.7 | 0.00 | 0.00 | 0.00 | 50 | 1007.0 |
| 20260505020520 | 62 | 199 | 1.7 | 2.6 | 0.00 | 0.00 | 0.00 | 50 | 1006.8 |
| 20260505020018 | 62 | 227 | 5.2 | 6.1 | 0.00 | 0.00 | 0.00 | 50 | 1007.0 |
| 20260505015515 | 62 | 254 | 1.7 | 2.6 | 0.00 | 0.00 | 0.00 | 50 | 1006.9 |
| 20260505015012 | 62 | 252 | 5.2 | 6.1 | 0.00 | 0.00 | 0.00 | 50 | 1006.7 |
| 20260505014509 | 62 | 214 | 4.3 | 6.1 | 0.00 | 0.00 | 0.00 | 50 | 1006.8 |
| 20260505014007 | 62 | 192 | 3.5 | 7.8 | 0.00 | 0.00 | 0.00 | 50 | 1006.6 |
| 20260505013503 | 62 | 212 | 3.5 | 3.5 | 0.00 | 0.00 | 0.00 | 49 | 1006.7 |
| 20260505013000 | 63 | 258 | 3.5 | 5.2 | 0.00 | 0.00 | 0.00 | 49 | 1006.6 |
| 20260505012459 | 63 | 165 | 2.6 | 2.6 | 0.00 | 0.00 | 0.00 | 49 | 1006.4 |
| 20260505011955 | 63 | 221 | 1.7 | 1.7 | 0.00 | 0.00 | 0.00 | 48 | 1006.3 |
| 20260505011451 | 64 | 190 | 5.2 | 7.0 | 0.00 | 0.00 | 0.00 | 48 | 1006.2 |
| 20260505010948 | 64 | 185 | 3.5 | 3.5 | 0.00 | 0.00 | 0.00 | 47 | 1006.2 |
| 20260505010444 | 64 | 220 | 1.7 | 1.7 | 0.00 | 0.00 | 0.00 | 47 | 1006.0 |
| 20260505005940 | 64 | 218 | 3.5 | 5.2 | 0.00 | 0.00 | 0.00 | 46 | 1005.8 |
| 20260505005437 | 64 | 209 | 5.2 | 6.1 | 0.00 | 0.00 | 0.00 | 46 | 1005.7 |
| 20260505004935 | 64 | 219 | 3.5 | 6.1 | 0.00 | 0.00 | 0.00 | 46 | 1005.6 |
| 20260505004431 | 65 | 216 | 4.3 | 5.2 | 0.00 | 0.00 | 0.00 | 46 | 1005.2 |
| 20260505003928 | 65 | 162 | 2.6 | 3.5 | 0.00 | 0.00 | 0.00 | 45 | 1005.4 |
| 20260505003425 | 65 | 224 | 2.6 | 2.6 | 0.00 | 0.00 | 0.00 | 44 | 1005.2 |
| 20260505002921 | 66 | 217 | 1.7 | 1.7 | 0.00 | 0.00 | 0.00 | 43 | 1005.4 |
| 20260505002418 | 66 | 197 | 3.5 | 5.2 | 0.00 | 0.00 | 0.00 | 43 | 1004.9 |
| 20260505001916 | 66 | 213 | 3.5 | 3.5 | 0.00 | 0.00 | 0.00 | 43 | 1004.8 |
| 20260505001413 | 66 | 233 | 5.2 | 6.1 | 0.00 | 0.00 | 0.00 | 42 | 1004.6 |
| 20260505000910 | 66 | 200 | 6.1 | 7.8 | 0.00 | 0.00 | 0.00 | 41 | 1004.7 |
| 20260505000408 | 67 | 206 | 2.6 | 3.5 | 0.00 | 0.00 | 0.00 | 40 | 1004.2 |
| 20260504235904 | 67 | 240 | 4.3 | 6.1 | 0.00 | 0.00 | 0.00 | 39 | 1004.1 |
| 20260504235402 | 68 | 221 | 3.5 | 3.5 | 0.00 | 0.00 | 0.00 | 37 | 1004.3 |
| 20260504234858 | 69 | 212 | 1.7 | 1.7 | 0.00 | 0.00 | 0.00 | 36 | 1004.0 |
| 20260504234356 | 69 | 217 | 0.9 | 0.9 | 0.00 | 0.00 | 0.00 | 36 | 1004.0 |
| 20260504233852 | 69 | 217 | 1.7 | 1.7 | 0.00 | 0.00 | 0.00 | 35 | 1003.8 |
| 20260504233348 | 70 | 215 | 0.9 | 0.9 | 0.00 | 0.00 | 0.00 | 35 | 1003.9 |
| 20260504232844 | 70 | 235 | 2.6 | 2.6 | 0.00 | 0.00 | 0.00 | 34 | 1003.6 |
| 20260504232342 | 70 | 221 | 3.5 | 3.5 | 0.00 | 0.00 | 0.00 | 34 | 1003.7 |
| 20260504231838 | 70 | 174 | 1.7 | 1.7 | 0.00 | 0.00 | 0.00 | 34 | 1003.6 |
| 20260504231335 | 71 | 226 | 1.7 | 1.7 | 0.00 | 0.00 | 0.00 | 34 | 1003.5 |
| 20260504230831 | 71 | 232 | 1.7 | 1.7 | 0.00 | 0.00 | 0.00 | 34 | 1003.5 |
| 20260504230329 | 71 | 207 | 3.5 | 5.2 | 0.00 | 0.00 | 0.00 | 33 | 1003.3 |
| 20260504225828 | 71 | 243 | 3.5 | 3.5 | 0.00 | 0.00 | 0.00 | 33 | 1003.5 |
| 20260504225324 | 71 | 232 | 1.7 | 2.6 | 0.00 | 0.00 | 0.00 | 33 | 1003.3 |
| 20260504224821 | 71 | 217 | 1.7 | 1.7 | 0.00 | 0.00 | 0.00 | 33 | 1003.3 |
| 20260504224318 | 71 | 245 | 3.5 | 3.5 | 0.00 | 0.00 | 0.00 | 33 | 1003.2 |
| 20260504223815 | 71 | 261 | 3.5 | 3.5 | 0.00 | 0.00 | 0.00 | 32 | 1003.1 |
| 20260504223310 | 71 | 166 | 5.2 | 6.1 | 0.00 | 0.00 | 0.00 | 32 | 1003.1 |
| 20260504222807 | 72 | 246 | 4.3 | 5.2 | 0.00 | 0.00 | 0.00 | 32 | 1003.1 |
| 20260504222305 | 72 | 249 | 2.6 | 2.6 | 0.00 | 0.00 | 0.00 | 32 | 1003.1 |
| 20260504221802 | 72 | 247 | 3.5 | 3.5 | 0.00 | 0.00 | 0.00 | 32 | 1003.1 |
| 20260504221259 | 72 | 210 | 2.6 | 3.5 | 0.00 | 0.00 | 0.00 | 31 | 1003.2 |
| 20260504220755 | 72 | 211 | 2.6 | 2.6 | 0.00 | 0.00 | 0.00 | 32 | 1003.1 |
| 20260504220252 | 72 | 199 | 4.3 | 5.2 | 0.00 | 0.00 | 0.00 | 31 | 1003.4 |
| 20260504215750 | 72 | 240 | 2.6 | 3.5 | 0.00 | 0.00 | 0.00 | 31 | 1003.2 |
| 20260504215246 | 72 | 231 | 3.5 | 3.5 | 0.00 | 0.00 | 0.00 | 31 | 1003.0 |
| 20260504214742 | 72 | 242 | 3.5 | 3.5 | 0.00 | 0.00 | 0.00 | 31 | 1003.2 |
| 20260504214239 | 72 | 247 | 3.5 | 5.2 | 0.00 | 0.00 | 0.00 | 31 | 1003.1 |
| 20260504213735 | 72 | 226 | 4.3 | 5.2 | 0.00 | 0.00 | 0.00 | 32 | 1003.1 |
| 20260504213226 | 72 | 224 | 2.6 | 2.6 | 0.00 | 0.00 | 0.00 | 31 | 1003.1 |
| 20260504212723 | 73 | 264 | 4.3 | 5.2 | 0.00 | 0.00 | 0.00 | 31 | 1003.0 |
| 20260504212220 | 73 | 255 | 3.5 | 3.5 | 0.00 | 0.00 | 0.00 | 30 | 1003.0 |
| 20260504211717 | 72 | 242 | 2.6 | 3.5 | 0.00 | 0.00 | 0.00 | 31 | 1003.1 |
| 20260504211213 | 71 | 232 | 3.5 | 3.5 | 0.00 | 0.00 | 0.00 | 31 | 1003.0 |
| 20260504210711 | 71 | 212 | 5.2 | 5.2 | 0.00 | 0.00 | 0.00 | 31 | 1003.1 |
| 20260504210208 | 71 | 226 | 4.3 | 7.0 | 0.00 | 0.00 | 0.00 | 31 | 1003.0 |
| 20260504205705 | 71 | 223 | 4.3 | 6.1 | 0.00 | 0.00 | 0.00 | 30 | 1003.1 |
| 20260504205202 | 72 | 235 | 4.3 | 6.1 | 0.00 | 0.00 | 0.00 | 31 | 1003.1 |
| 20260504204700 | 72 | 220 | 3.5 | 5.2 | 0.00 | 0.00 | 0.00 | 30 | 1003.2 |
| 20260504204159 | 72 | 235 | 2.6 | 3.5 | 0.00 | 0.00 | 0.00 | 30 | 1003.3 |
| 20260504203657 | 72 | 227 | 3.5 | 6.1 | 0.00 | 0.00 | 0.00 | 30 | 1003.2 |
| 20260504203154 | 73 | 230 | 6.1 | 7.0 | 0.00 | 0.00 | 0.00 | 29 | 1003.1 |
| 20260504202649 | 72 | 206 | 5.2 | 7.0 | 0.00 | 0.00 | 0.00 | 29 | 1003.3 |
| 20260504202146 | 73 | 216 | 5.2 | 7.8 | 0.00 | 0.00 | 0.00 | 29 | 1003.1 |
| 20260504201643 | 73 | 249 | 6.1 | 7.0 | 0.00 | 0.00 | 0.00 | 29 | 1003.1 |
| 20260504201141 | 73 | 226 | 4.3 | 6.1 | 0.00 | 0.00 | 0.00 | 29 | 1003.3 |
| 20260504200638 | 72 | 211 | 1.7 | 2.6 | 0.00 | 0.00 | 0.00 | 29 | 1003.1 |
| 20260504200134 | 72 | 228 | 3.5 | 5.2 | 0.00 | 0.00 | 0.00 | 29 | 1003.3 |
| 20260504195630 | 73 | 222 | 4.3 | 6.1 | 0.00 | 0.00 | 0.00 | 28 | 1003.1 |
| 20260504195126 | 73 | 227 | 6.1 | 7.0 | 0.00 | 0.00 | 0.00 | 29 | 1003.3 |
| 20260504194623 | 72 | 160 | 5.2 | 6.1 | 0.00 | 0.00 | 0.00 | 29 | 1003.2 |
| 20260504194119 | 72 | 240 | 3.5 | 3.5 | 0.00 | 0.00 | 0.00 | 29 | 1003.3 |
| 20260504193616 | 72 | 240 | 5.2 | 7.0 | 0.00 | 0.00 | 0.00 | 29 | 1003.1 |
| 20260504193114 | 71 | 257 | 5.2 | 7.0 | 0.00 | 0.00 | 0.00 | 29 | 1003.2 |
| 20260504192612 | 72 | 226 | 5.2 | 7.0 | 0.00 | 0.00 | 0.00 | 29 | 1003.4 |
| 20260504192110 | 71 | 193 | 6.1 | 7.0 | 0.00 | 0.00 | 0.00 | 29 | 1003.2 |
| 20260504191608 | 72 | 245 | 3.5 | 5.2 | 0.00 | 0.00 | 0.00 | 29 | 1003.4 |
| 20260504191104 | 72 | 278 | 7.0 | 8.7 | 0.00 | 0.00 | 0.00 | 29 | 1003.5 |
| 20260504190600 | 72 | 193 | 4.3 | 6.1 | 0.00 | 0.00 | 0.00 | 29 | 1003.1 |
| 20260504190056 | 72 | 252 | 2.6 | 2.6 | 0.00 | 0.00 | 0.00 | 29 | 1003.4 |
| 20260504185553 | 72 | 233 | 7.0 | 9.6 | 0.00 | 0.00 | 0.00 | 29 | 1003.5 |
| 20260504185050 | 71 | 268 | 3.5 | 5.2 | 0.00 | 0.00 | 0.00 | 29 | 1003.6 |
| 20260504184545 | 71 | 245 | 1.7 | 3.5 | 0.00 | 0.00 | 0.00 | 30 | 1003.5 |
| 20260504184041 | 71 | 244 | 7.8 | 9.6 | 0.00 | 0.00 | 0.00 | 30 | 1003.6 |
| 20260504183538 | 71 | 210 | 11.3 | 16.5 | 0.00 | 0.00 | 0.00 | 29 | 1003.7 |
| 20260504183036 | 71 | 240 | 3.5 | 5.2 | 0.00 | 0.00 | 0.00 | 30 | 1003.7 |
| 20260504182533 | 71 | 246 | 3.5 | 3.5 | 0.00 | 0.00 | 0.00 | 30 | 1003.6 |
| 20260504182030 | 71 | 232 | 7.8 | 8.7 | 0.00 | 0.00 | 0.00 | 30 | 1003.8 |
| 20260504181527 | 70 | 243 | 1.7 | 3.5 | 0.00 | 0.00 | 0.00 | 30 | 1003.5 |
| 20260504181026 | 70 | 274 | 7.0 | 8.7 | 0.00 | 0.00 | 0.00 | 31 | 1003.5 |
| 20260504180524 | 70 | 231 | 10.4 | 13.0 | 0.00 | 0.00 | 0.00 | 30 | 1003.6 |
| 20260504180023 | 70 | 235 | 5.2 | 6.1 | 0.00 | 0.00 | 0.00 | 31 | 1003.9 |
| 20260504175519 | 70 | 246 | 11.3 | 14.8 | 0.00 | 0.00 | 0.00 | 31 | 1004.0 |
| 20260504175016 | 70 | 202 | 7.8 | 9.6 | 0.00 | 0.00 | 0.00 | 30 | 1003.9 |
| 20260504174514 | 69 | 243 | 5.2 | 7.0 | 0.00 | 0.00 | 0.00 | 31 | 1003.9 |
| 20260504174011 | 69 | 208 | 3.5 | 5.2 | 0.00 | 0.00 | 0.00 | 31 | 1003.9 |
| 20260504173508 | 69 | 234 | 4.3 | 6.1 | 0.00 | 0.00 | 0.00 | 31 | 1003.9 |
| 20260504173005 | 69 | 177 | 6.1 | 7.0 | 0.00 | 0.00 | 0.00 | 32 | 1003.9 |
| 20260504172501 | 69 | 240 | 6.1 | 7.0 | 0.00 | 0.00 | 0.00 | 32 | 1004.2 |
| 20260504171957 | 69 | 204 | 9.6 | 14.8 | 0.00 | 0.00 | 0.00 | 32 | 1004.1 |
| 20260504171455 | 69 | 237 | 8.7 | 13.9 | 0.00 | 0.00 | 0.00 | 31 | 1004.3 |
| 20260504170951 | 68 | 259 | 6.1 | 9.6 | 0.00 | 0.00 | 0.00 | 32 | 1004.0 |
| 20260504170448 | 69 | 246 | 8.7 | 9.6 | 0.00 | 0.00 | 0.00 | 31 | 1004.1 |
| 20260504160408 | 67 | 209 | 7.8 | 9.6 | 0.00 | 0.00 | 0.00 | 34 | 1004.4 |
| 20260504150831 | 64 | 226 | 4.3 | 6.1 | 0.00 | 0.00 | 0.00 | 38 | 1005.3 |
| 20260504150328 | 65 | 235 | 2.6 | 3.5 | 0.00 | 0.00 | 0.00 | 38 | 1005.5 |
| 20260504141258 | 63 | 233 | 5.2 | 6.1 | 0.00 | 0.00 | 0.00 | 40 | 1005.9 |
| 20260504140755 | 62 | 224 | 5.2 | 7.0 | 0.00 | 0.00 | 0.00 | 41 | 1005.9 |
| 20260504140250 | 62 | 216 | 6.1 | 7.8 | 0.00 | 0.00 | 0.00 | 41 | 1006.0 |
| 20260504130719 | 58 | 209 | 6.1 | 7.0 | 0.00 | 0.00 | 0.00 | 45 | 1006.6 |
| 20260504130215 | 58 | 213 | 3.5 | 3.5 | 0.00 | 0.00 | 0.00 | 46 | 1006.5 |
| 20260504120139 | 52 | 234 | 3.5 | 3.5 | 0.00 | 0.00 | 0.00 | 52 | 1007.4 |
| 20260504110606 | 48 | 217 | 1.7 | 1.7 | 0.00 | 0.00 | 0.00 | 58 | 1007.5 |
| 20260504100528 | 46 | 226 | 2.6 | 2.6 | 0.00 | 0.00 | 0.00 | 60 | 1007.4 |
| 20260504081921 | 46 | 228 | 0.9 | 1.7 | 0.00 | 0.00 | 0.00 | 58 | 1007.2 |
| 20260504081418 | 46 | 231 | 2.6 | 2.6 | 0.00 | 0.00 | 0.00 | 57 | 1007.3 |
| 20260504080914 | 46 | 234 | 1.7 | 1.7 | 0.00 | 0.00 | 0.00 | 58 | 1007.2 |
| 20260504080411 | 46 | 229 | 0.9 | 1.7 | 0.00 | 0.00 | 0.00 | 58 | 1007.1 |
| 20260504070338 | 44 | 219 | 0.9 | 0.9 | 0.00 | 0.00 | 0.00 | 59 | 1007.0 |
| 20260504050726 | 42 | 231 | 1.7 | 2.6 | 0.00 | 0.00 | 0.00 | 62 | 1007.1 |
| 20260504050218 | 43 | 238 | 1.7 | 1.7 | 0.00 | 0.00 | 0.00 | 62 | 1007.2 |
| 20260504045716 | 43 | 236 | 1.7 | 1.7 | 0.00 | 0.00 | 0.00 | 61 | 1007.2 |
| 20260504045215 | 43 | 219 | 1.7 | 1.7 | 0.00 | 0.00 | 0.00 | 61 | 1007.3 |
| 20260504044714 | 43 | 214 | 1.7 | 1.7 | 0.00 | 0.00 | 0.00 | 61 | 1007.1 |
| 20260504044211 | 43 | 232 | 1.7 | 1.7 | 0.00 | 0.00 | 0.00 | 62 | 1007.1 |
| 20260504043708 | 43 | 228 | 1.7 | 1.7 | 0.00 | 0.00 | 0.00 | 61 | 1007.1 |
| 20260504043204 | 43 | 228 | 1.7 | 1.7 | 0.00 | 0.00 | 0.00 | 60 | 1007.3 |
| 20260504042702 | 43 | 220 | 1.7 | 1.7 | 0.00 | 0.00 | 0.00 | 60 | 1007.1 |